Tracking 19562 objects as of 24-Mar-2019
HD Live streaming from Space Station
objects crossing your sky now

COSMOS 2118

Track COSMOS 2118 now!
10-day predictions
COSMOS 2118 is classified as:


NORAD ID: 21032
Int'l Code: 1990-114E
Perigee: 1,399.6 km
Apogee: 1,415.5 km
Inclination: 82.6 °
Period: 113.8 minutes
Semi major axis: 7778 km
RCS: 1.1049 m2 (large)
Launch date: December 22, 1990
Source: Commonwealth of Independent States (former USSR) (CIS)
Launch site: PLESETSK MISSILE AND SPACE COMPLEX (PKMTR)
aabbcc
Your satellite tracking list
Your tracking list is empty




NASA's NSSDC Master Catalog

Two Line Element Set (TLE):
1 21032U 90114E   19082.94852441 -.00000006 +00000-0 -88378-4 0  9996
2 21032 082.5628 077.4069 0010219 295.1291 125.6980 12.65487678304783
Source of the keplerian elements: AFSPC